DW4466 Weather Reports


time (UTC)temp
C
wind
direction
speed
KPH
gust
KPH
rain 1hr
cm
rain 24hr
cm
rain mn
cm
humidity
%
barometer
mb
20260509111519 12 292 1.6 4.8 0.00 0.00 0.00 66 1008.8
20260509111054 12 293 0.0 4.8 0.00 0.00 0.00 66 1008.8
20260509110528 12 315 0.0 4.8 0.00 0.00 0.00 66 1008.8
20260509110059 12 18 0.0 6.4 0.00 0.00 0.00 67 1008.8
20260509105529 12 9 1.6 6.4 0.00 0.00 0.00 65 1008.7
20260509105045 12 38 1.6 6.4 0.00 0.00 0.00 67 1008.8
20260509104517 12 33 1.6 4.8 0.00 0.00 0.00 67 1008.9
20260509104051 12 50 1.6 4.8 0.00 0.00 0.00 67 1008.8
20260509103521 12 48 1.6 6.4 0.00 0.00 0.00 65 1008.8
20260509103053 12 30 1.6 4.8 0.00 0.00 0.00 65 1008.8
20260509102533 12 44 1.6 6.4 0.00 0.00 0.00 67 1008.9
20260509102047 12 73 0.0 6.4 0.00 0.00 0.00 66 1008.9
20260509101524 12 47 1.6 6.4 0.00 0.00 0.00 64 1008.9
20260509101055 12 48 1.6 6.4 0.00 0.00 0.00 64 1008.8
20260509100527 12 11 1.6 4.8 0.00 0.00 0.00 63 1008.7
20260509100057 12 40 1.6 4.8 0.00 0.00 0.00 63 1008.9
20260509095515 13 327 0.0 4.8 0.00 0.00 0.00 61 1008.9
20260509095051 13 48 0.0 4.8 0.00 0.00 0.00 62 1008.9
20260509094520 13 359 0.0 6.4 0.00 0.00 0.00 61 1008.8
20260509094051 13 342 1.6 6.4 0.00 0.00 0.00 60 1008.8
20260509093505 13 304 1.6 8.0 0.00 0.00 0.00 60 1008.8
20260509093022 13 300 1.6 4.8 0.00 0.00 0.00 60 1008.9
20260509092557 13 217 1.6 8.0 0.00 0.00 0.00 60 1008.9
20260509092031 13 321 1.6 9.7 0.00 0.00 0.00 61 1008.9
20260509091505 13 290 4.8 9.7 0.00 0.00 0.00 61 1008.9
20260509091035 13 304 1.6 6.4 0.00 0.00 0.00 61 1008.9
20260509090509 13 321 0.0 8.0 0.00 0.00 0.00 60 1008.8
20260509090053 13 301 1.6 8.0 0.00 0.00 0.00 58 1008.8
20260509085509 13 59 1.6 8.0 0.00 0.00 0.00 59 1008.9
20260509085044 13 317 1.6 11.3 0.00 0.00 0.00 60 1009.0
20260509084515 13 308 1.6 9.7 0.00 0.00 0.00 58 1009.1
20260509084026 13 283 1.6 9.7 0.00 0.00 0.00 58 1009.2
20260509083559 13 246 1.6 6.4 0.00 0.00 0.00 58 1009.1
20260509083503 13 35 1.6 6.4 0.00 0.00 0.00 58 1009.1
20260509083044 13 292 1.6 6.4 0.00 0.00 0.00 57 1009.0
20260509082503 13 298 1.6 14.5 0.00 0.00 0.00 58 1009.1
20260509082033 13 273 3.2 14.5 0.00 0.00 0.00 58 1009.1
20260509081505 13 298 4.8 16.1 0.00 0.00 0.00 57 1009.1
20260509081039 13 300 8.0 19.3 0.00 0.00 0.00 58 1009.0
20260509080510 13 351 4.8 11.3 0.00 0.00 0.00 58 1009.2
20260509080047 13 290 4.8 14.5 0.00 0.00 0.00 58 1009.2
20260509075559 13 272 6.4 14.5 0.00 0.00 0.00 58 1009.2
20260509075501 13 256 6.4 12.9 0.00 0.00 0.00 58 1009.1
20260509075029 13 259 3.2 14.5 0.00 0.00 0.00 60 1009.2
20260509074503 13 269 8.0 14.5 0.00 0.00 0.00 59 1009.1
20260509074035 13 329 6.4 12.9 0.00 0.00 0.00 60 1009.2
20260509073503 13 321 3.2 11.3 0.00 0.00 0.00 62 1009.2
20260509073019 13 278 0.0 9.7 0.00 0.00 0.00 63 1009.2
20260509072555 13 327 0.0 9.7 0.00 0.00 0.00 62 1009.2
20260509072026 12 322 1.6 6.4 0.00 0.00 0.00 62 1009.1
20260509071559 12 288 3.2 6.4 0.00 0.00 0.00 63 1009.3
20260509071500 12 309 1.6 8.0 0.00 0.00 0.00 63 1009.2
20260509071037 12 303 0.0 4.8 0.00 0.00 0.00 64 1009.2
20260509070551 12 350 0.0 3.2 0.00 0.00 0.00 63 1009.3
20260509070025 12 259 0.0 6.4 0.00 0.00 0.00 64 1009.2
20260509065556 12 284 1.6 6.4 0.00 0.00 0.00 64 1009.3
20260509065028 12 312 0.0 6.4 0.00 0.00 0.00 64 1009.3
20260509064503 12 282 1.6 6.4 0.00 0.00 0.00 63 1009.3
20260509064037 12 275 0.0 4.8 0.00 0.00 0.00 64 1009.3
20260509063504 12 291 1.6 8.0 0.00 0.00 0.00 65 1009.5
20260509063034 12 243 0.0 4.8 0.00 0.00 0.00 64 1009.5
20260509062507 12 254 0.0 9.7 0.00 0.00 0.00 65 1009.5
20260509062039 12 333 3.2 9.7 0.00 0.00 0.00 66 1009.6
20260509061519 12 257 1.6 6.4 0.00 0.00 0.00 67 1009.7
20260509061026 12 296 1.6 4.8 0.00 0.00 0.00 69 1009.8
20260509060603 12 67 0.0 4.8 0.00 0.00 0.00 68 1009.7
20260509060503 12 67 0.0 4.8 0.00 0.00 0.00 70 1009.7
20260509060037 12 326 1.6 4.8 0.00 0.00 0.00 67 1009.8
20260509055507 12 259 0.0 4.8 0.00 0.00 0.00 67 1009.8
20260509055035 12 282 0.0 3.2 0.00 0.00 0.00 66 1009.9
20260509054511 12 356 0.0 3.2 0.00 0.00 0.00 66 1009.9
20260509054044 12 352 0.0 4.8 0.00 0.00 0.00 66 1009.9
20260509053516 12 298 0.0 4.8 0.00 0.00 0.00 65 1010.0
20260509053129 12 274 0.0 8.0 0.00 0.00 0.00 65 1009.9
20260509052531 12 322 1.6 8.0 0.00 0.00 0.00 65 1009.9
20260509052101 12 280 0.0 6.4 0.00 0.00 0.00 66 1010.0
20260509052002 11 96 1.6 6.4 0.00 0.00 0.00 66 1009.9
20260509051539 11 285 1.6 8.0 0.00 0.00 0.00 67 1009.9
20260509051009 11 302 3.2 8.0 0.00 0.00 0.00 67 1010.0
20260509050544 11 296 0.0 4.8 0.00 0.00 0.00 68 1010.0
20260509050015 11 277 0.0 4.8 0.00 0.00 0.00 68 1009.9
20260509045528 11 285 0.0 4.8 0.00 0.00 0.00 68 1010.0
20260509045104 11 27 0.0 4.8 0.00 0.00 0.00 70 1010.0
20260509045004 11 27 0.0 4.8 0.00 0.00 0.00 70 1009.9
20260509044536 11 304 0.0 4.8 0.00 0.00 0.00 70 1010.0
20260509044009 11 321 0.0 3.2 0.00 0.00 0.00 75 1009.7
20260509043540 10 321 0.0 3.2 0.00 0.00 0.00 72 1009.9
20260509043011 10 350 0.0 0.0 0.00 0.00 0.00 74 1009.8
20260509042526 10 350 0.0 0.0 0.00 0.00 0.00 75 1010.0
20260509042100 10 350 0.0 0.0 0.00 0.00 0.00 74 1009.8
20260509042002 10 350 0.0 0.0 0.00 0.00 0.00 74 1009.8
20260509041550 10 350 0.0 0.0 0.00 0.00 0.00 74 1009.9
20260509041011 10 350 0.0 0.0 0.00 0.00 0.00 73 1009.9
20260509040546 10 350 0.0 1.6 0.00 0.00 0.00 70 1009.9
20260509040118 11 350 0.0 3.2 0.00 0.00 0.00 72 1009.9
20260509035526 11 350 0.0 3.2 0.00 0.00 0.00 71 1010.0
20260509035100 11 305 0.0 3.2 0.00 0.00 0.00 70 1009.9
20260509035005 11 310 0.0 3.2 0.00 0.00 0.00 70 1009.9
20260509034550 11 310 0.0 3.2 0.00 0.00 0.00 68 1009.9
20260509034008 11 310 0.0 1.6 0.00 0.00 0.00 67 1009.9
20260509033524 11 290 0.0 1.6 0.00 0.00 0.00 66 1009.9
20260509033057 12 280 0.0 0.0 0.00 0.00 0.00 65 1009.9
20260509032526 12 280 0.0 0.0 0.00 0.00 0.00 62 1010.0
20260509032101 12 280 0.0 0.0 0.00 0.00 0.00 62 1010.0
20260509032003 12 280 0.0 0.0 0.00 0.00 0.00 61 1010.0
20260509031536 12 280 0.0 0.0 0.00 0.00 0.00 61 1010.0
20260509031006 12 280 0.0 0.0 0.00 0.00 0.00 60 1010.0
20260509030545 13 280 0.0 0.0 0.00 0.00 0.00 60 1010.0
20260509030012 13 280 0.0 0.0 0.00 0.00 0.00 59 1010.0
20260509025546 13 280 0.0 0.0 0.00 0.00 0.00 59 1010.1
20260509025016 13 280 0.0 0.0 0.00 0.00 0.00 59 1010.1
20260509024548 13 280 0.0 0.0 0.00 0.00 0.00 59 1010.2
20260509024024 13 280 0.0 0.0 0.00 0.00 0.00 59 1010.2
20260509023554 14 280 0.0 3.2 0.00 0.00 0.00 57 1010.2
20260509023023 14 280 0.0 3.2 0.00 0.00 0.00 56 1010.3
20260509022602 14 280 0.0 3.2 0.00 0.00 0.00 56 1010.3
20260509022032 14 284 0.0 4.8 0.00 0.00 0.00 56 1010.2
20260509021558 14 279 0.0 4.8 0.00 0.00 0.00 55 1010.2
20260509021502 14 279 0.0 4.8 0.00 0.00 0.00 55 1010.2
20260509021033 14 286 0.0 4.8 0.00 0.00 0.00 55 1010.1
20260509020509 14 294 0.0 3.2 0.00 0.00 0.00 55 1010.2
20260509020052 14 300 0.0 0.0 0.00 0.00 0.00 54 1010.2
20260509015517 15 296 0.0 0.0 0.00 0.00 0.00 54 1010.2
20260509015050 15 301 0.0 0.0 0.00 0.00 0.00 54 1010.2
20260509014509 15 267 0.0 0.0 0.00 0.00 0.00 53 1010.2
20260509014041 15 267 0.0 0.0 0.00 0.00 0.00 52 1010.1
20260509013508 15 261 0.0 0.0 0.00 0.00 0.00 51 1010.0
20260509013049 16 262 0.0 0.0 0.00 0.00 0.00 50 1010.0
20260509012514 16 261 0.0 0.0 0.00 0.00 0.00 50 1010.0
20260509012046 16 261 0.0 0.0 0.00 0.00 0.00 49 1010.1
20260509011526 16 261 0.0 0.0 0.00 0.00 0.00 49 1010.1
20260509011057 16 261 0.0 0.0 0.00 0.00 0.00 48 1010.1
20260509010533 16 261 0.0 0.0 0.00 0.00 0.00 48 1010.0
20260509010100 16 261 0.0 3.2 0.00 0.00 0.00 47 1009.9
20260509010008 16 261 0.0 3.2 0.00 0.00 0.00 47 1010.0
20260509005545 17 256 0.0 3.2 0.00 0.00 0.00 47 1009.9
20260509005018 17 256 0.0 4.8 0.00 0.00 0.00 46 1009.9
20260509004546 17 261 1.6 4.8 0.00 0.00 0.00 46 1009.8
20260509004017 17 246 0.0 4.8 0.00 0.00 0.00 45 1009.8
20260509003548 17 226 0.0 4.8 0.00 0.00 0.00 45 1009.8
20260509003006 18 231 1.6 4.8 0.00 0.00 0.00 45 1009.7
20260509002537 18 275 0.0 6.4 0.00 0.00 0.00 43 1009.7
20260509002006 18 252 1.6 8.0 0.00 0.00 0.00 43 1009.7
20260509001538 18 257 1.6 8.0 0.00 0.00 0.00 41 1009.8
20260509001013 18 269 1.6 9.7 0.00 0.00 0.00 40 1009.7
20260509000546 18 292 4.8 9.7 0.00 0.00 0.00 39 1009.6
20260509000100 18 298 0.0 6.4 0.00 0.00 0.00 40 1009.6
20260509000005 18 298 1.6 6.4 0.00 0.00 0.00 40 1009.6
20260508235527 19 263 1.6 6.4 0.00 0.00 0.00 41 1009.6
20260508235057 19 222 0.0 3.2 0.00 0.00 0.00 40 1009.5
20260508234535 19 279 0.0 0.0 0.00 0.00 0.00 38 1009.4
20260508234100 20 279 0.0 3.2 0.00 0.00 0.00 38 1009.3
20260508234001 20 279 0.0 3.2 0.00 0.00 0.00 37 1009.4
20260508233532 20 296 0.0 4.8 0.00 0.00 0.00 38 1009.3
20260508233113 20 268 0.0 4.8 0.00 0.00 0.00 38 1009.2
20260508233002 20 268 0.0 3.2 0.00 0.00 0.00 37 1009.3
20260508232539 20 289 0.0 4.8 0.00 0.00 0.00 37 1009.4
20260508232007 20 291 1.6 4.8 0.00 0.00 0.00 35 1009.2
20260508231539 20 279 1.6 3.2 0.00 0.00 0.00 36 1009.3
20260508231009 20 355 0.0 1.6 0.00 0.00 0.00 36 1009.2
20260508230527 20 357 0.0 3.2 0.00 0.00 0.00 35 1009.2
20260508230107 21 358 0.0 6.4 0.00 0.00 0.00 34 1009.3
20260508230003 21 291 0.0 6.4 0.00 0.00 0.00 34 1009.3
20260508225536 21 302 1.6 8.0 0.00 0.00 0.00 34 1009.2
20260508225052 21 323 0.0 9.7 0.00 0.00 0.00 33 1009.2
20260508224509 21 357 0.0 9.7 0.00 0.00 0.00 33 1009.2
20260508224043 21 325 1.6 9.7 0.00 0.00 0.00 32 1009.1
20260508223513 22 302 3.2 9.7 0.00 0.00 0.00 31 1009.1
20260508223048 22 341 1.6 6.4 0.00 0.00 0.00 32 1009.1
20260508222521 22 324 1.6 9.7 0.00 0.00 0.00 36 1009.0
20260508222034 22 340 3.2 9.7 0.00 0.00 0.00 34 1008.9
20260508221518 21 260 3.2 11.3 0.00 0.00 0.00 33 1009.0
20260508221042 21 276 3.2 11.3 0.00 0.00 0.00 35 1009.0
20260508220514 21 265 0.0 3.2 0.00 0.00 0.00 40 1009.1
20260508220030 21 190 0.0 3.2 0.00 0.00 0.00 37 1009.1
20260508215559 20 217 1.6 4.8 0.00 0.00 0.00 36 1009.1
20260508215502 20 271 0.0 6.4 0.00 0.00 0.00 36 1009.2
20260508215027 20 303 3.2 11.3 0.00 0.00 0.00 34 1009.3
20260508214606 21 309 4.8 12.9 0.00 0.00 0.00 35 1009.3
20260508214501 21 304 3.2 8.0 0.00 0.00 0.00 34 1009.3
20260508214032 21 290 3.2 14.5 0.00 0.00 0.00 35 1009.2
20260508213503 21 38 3.2 14.5 0.00 0.00 0.00 33 1009.2
20260508213035 21 32 3.2 14.5 0.00 0.00 0.00 33 1009.1
20260508212513 21 15 4.8 16.1 0.00 0.00 0.00 34 1009.2
20260508212042 21 38 4.8 16.1 0.00 0.00 0.00 33 1009.2
20260508211511 22 40 3.2 12.9 0.00 0.00 0.00 34 1009.2
20260508211043 21 302 3.2 9.7 0.00 0.00 0.00 35 1009.2
20260508210515 21 300 4.8 14.5 0.00 0.00 0.00 33 1009.2
20260508210049 21 249 3.2 17.7 0.00 0.00 0.00 32 1009.3
20260508205525 21 46 11.3 19.3 0.00 0.00 0.00 33 1009.4
20260508205057 21 69 8.0 25.7 0.00 0.00 0.00 32 1009.3
20260508204535 21 52 16.1 25.7 0.00 0.00 0.00 32 1009.4
20260508204010 21 23 11.3 25.7 0.00 0.00 0.00 35 1009.4
20260508203521 21 34 14.5 25.7 0.00 0.00 0.00 33 1009.5
20260508203054 21 38 8.0 22.5 0.00 0.00 0.00 37 1009.5
20260508202524 21 8 9.7 19.3 0.00 0.00 0.00 33 1009.4
20260508202056 20 45 9.7 17.7 0.00 0.00 0.00 34 1009.6
20260508201531 21 46 11.3 22.5 0.00 0.00 0.00 32 1009.6
20260508201045 21 23 14.5 22.5 0.00 0.00 0.00 32 1009.7
20260508200515 21 246 3.2 17.7 0.00 0.00 0.00 31 1009.7
20260508200055 21 23 8.0 17.7 0.00 0.00 0.00 32 1010.0
20260508195518 21 23 6.4 16.1 0.00 0.00 0.00 35 1009.9
20260508195049 20 72 8.0 16.1 0.00 0.00 0.00 33 1009.9
20260508194505 20 3 4.8 24.1 0.00 0.00 0.00 36 1010.0
20260508194030 20 228 11.3 24.1 0.00 0.00 0.00 35 1010.2
20260508193507 20 65 11.3 22.5 0.00 0.00 0.00 34 1010.2
20260508193036 20 94 9.7 22.5 0.00 0.00 0.00 35 1010.2
20260508192507 20 29 8.0 19.3 0.00 0.00 0.00 37 1010.3
20260508192041 20 5 8.0 16.1 0.00 0.00 0.00 32 1010.6
20260508191511 20 311 3.2 19.3 0.00 0.00 0.00 37 1010.6
20260508191042 20 298 6.4 19.3 0.00 0.00 0.00 33 1010.8
20260508190511 20 313 8.0 19.3 0.00 0.00 0.00 36 1010.9
20260508190049 20 42 8.0 17.7 0.00 0.00 0.00 37 1011.0
20260508185601 20 335 8.0 17.7 0.00 0.00 0.00 34 1011.0
20260508185503 20 18 6.4 22.5 0.00 0.00 0.00 35 1010.9
20260508185035 19 315 8.0 25.7 0.00 0.00 0.00 37 1011.1
20260508184505 19 27 12.9 25.7 0.00 0.00 0.00 36 1011.2
20260508184036 19 42 6.4 22.5 0.00 0.00 0.00 35 1011.3
20260508183509 19 56 9.7 33.8 0.00 0.00 0.00 33 1011.4
20260508183047 20 323 11.3 33.8 0.00 0.00 0.00 36 1011.3
20260508182517 19 41 11.3 20.9 0.00 0.00 0.00 37 1011.3
20260508182051 19 61 6.4 20.9 0.00 0.00 0.00 39 1011.3
20260508181520 19 286 8.0 22.5 0.00 0.00 0.00 37 1011.4
20260508181052 19 356 12.9 27.4 0.00 0.00 0.00 36 1011.4
20260508180511 19 13 9.7 38.6 0.00 0.00 0.00 36 1011.7
20260508180039 19 8 9.7 38.6 0.00 0.00 0.00 36 1011.6
20260508175511 19 9 8.0 22.5 0.00 0.00 0.00 37 1011.5
20260508175046 19 69 12.9 22.5 0.00 0.00 0.00 36 1011.7
20260508174558 19 356 16.1 22.5 0.00 0.00 0.00 35 1011.9
20260508174500 19 26 14.5 22.5 0.00 0.00 0.00 36 1012.0
20260508174034 18 63 4.8 22.5 0.00 0.00 0.00 39 1011.9
20260508173505 18 10 8.0 24.1 0.00 0.00 0.00 41 1011.7
20260508173036 18 34 11.3 25.7 0.00 0.00 0.00 37 1011.7
20260508172504 19 35 11.3 25.7 0.00 0.00 0.00 37 1011.8
20260508172014 18 360 9.7 22.5 0.00 0.00 0.00 37 1011.7
20260508171555 18 120 6.4 22.5 0.00 0.00 0.00 36 1011.8
20260508171022 18 58 14.5 22.5 0.00 0.00 0.00 38 1012.2
20260508170552 18 34 14.5 24.1 0.00 0.00 0.00 38 1012.3
20260508170004 18 25 17.7 32.2 0.00 0.00 0.00 37 1012.2
20260508165536 18 29 20.9 32.2 0.00 0.00 0.00 38 1012.3
20260508165006 18 54 12.9 32.2 0.00 0.00 0.00 40 1012.5
20260508164540 18 346 12.9 32.2 0.00 0.00 0.00 38 1012.4
20260508164053 18 69 9.7 25.7 0.00 0.00 0.00 47 1012.5
20260508163524 18 89 14.5 25.7 0.00 0.00 0.00 39 1012.5
20260508163058 18 9 8.0 16.1 0.00 0.00 0.00 42 1012.5
20260508162526 17 280 8.0 22.5 0.00 0.00 0.00 42 1012.6
20260508162101 17 44 9.7 22.5 0.00 0.00 0.00 41 1012.7
20260508161520 17 50 8.0 24.1 0.00 0.00 0.00 43 1012.7
20260508161048 17 40 12.9 24.1 0.00 0.00 0.00 40 1012.8
20260508160522 17 71 16.1 30.6 0.00 0.00 0.00 45 1012.8
20260508160057 17 48 8.0 29.0 0.00 0.00 0.00 43 1012.8
20260508155538 17 40 14.5 29.0 0.00 0.00 0.00 43 1013.1
20260508155048 17 57 16.1 27.4 0.00 0.00 0.00 45 1013.0
20260508154522 17 40 12.9 27.4 0.00 0.00 0.00 43 1013.0
20260508154054 17 33 14.5 27.4 0.00 0.00 0.00 44 1013.0
20260508153532 17 21 19.3 27.4 0.00 0.00 0.00 44 1013.0
20260508153058 17 79 8.0 16.1 0.00 0.00 0.00 47 1013.3
20260508153002 17 46 8.0 22.5 0.00 0.00 0.00 47 1013.2
20260508152532 16 38 9.7 30.6 0.00 0.00 0.00 44 1013.2
20260508152058 16 13 14.5 30.6 0.00 0.00 0.00 43 1013.3
20260508151530 16 18 11.3 25.7 0.00 0.00 0.00 49 1013.3
20260508151100 16 27 14.5 25.7 0.00 0.00 0.00 43 1013.3
20260508151004 16 34 14.5 25.7 0.00 0.00 0.00 43 1013.4
20260508150535 16 43 11.3 20.9 0.00 0.00 0.00 48 1013.5
20260508150006 16 20 12.9 25.7 0.00 0.00 0.00 42 1013.8
20260508145534 16 31 11.3 27.4 0.00 0.00 0.00 42 1013.7
20260508145006 16 348 14.5 27.4 0.00 0.00 0.00 40 1013.7
20260508144539 16 32 11.3 24.1 0.00 0.00 0.00 43 1013.7
20260508144010 16 310 9.7 24.1 0.00 0.00 0.00 43 1013.7
20260508143544 16 36 14.5 20.9 0.00 0.00 0.00 42 1013.7
20260508143012 16 50 6.4 25.7 0.00 0.00 0.00 46 1013.8
20260508142544 15 19 6.4 25.7 0.00 0.00 0.00 44 1013.8
20260508142018 15 270 4.8 16.1 0.00 0.00 0.00 46 1013.8
20260508141552 15 313 8.0 16.1 0.00 0.00 0.00 46 1013.8
20260508141027 15 42 6.4 16.1 0.00 0.00 0.00 45 1013.8
20260508140553 15 324 3.2 19.3 0.00 0.00 0.00 49 1013.7
20260508140012 15 323 1.6 19.3 0.00 0.00 0.00 52 1013.8
20260508135548 14 319 3.2 19.3 0.00 0.00 0.00 49 1014.0
20260508135020 14 310 4.8 12.9 0.00 0.00 0.00 48 1014.0
20260508134546 14 1 1.6 14.5 0.00 0.00 0.00 50 1014.0
20260508134015 13 283 3.2 12.9 0.00 0.00 0.00 49 1014.0
20260508133546 13 47 3.2 12.9 0.00 0.00 0.00 52 1014.2
20260508133024 13 268 4.8 12.9 0.00 0.00 0.00 50 1014.3
20260508132547 13 327 3.2 11.3 0.00 0.00 0.00 53 1014.3
20260508132018 13 4 1.6 9.7 0.00 0.00 0.00 55 1014.3
20260508131559 12 315 1.6 9.7 0.00 0.00 0.00 54 1014.3
20260508131010 12 343 0.0 6.4 0.00 0.00 0.00 58 1014.3
20260508130538 12 281 0.0 6.4 0.00 0.00 0.00 59 1014.4
20260508130005 12 283 3.2 9.7 0.00 0.00 0.00 61 1014.3
20260508125540 12 283 3.2 11.3 0.00 0.00 0.00 62 1014.4
20260508125014 12 333 4.8 11.3 0.00 0.00 0.00 63 1014.5
20260508124549 11 310 1.6 8.0 0.00 0.00 0.00 65 1014.5
20260508124018 11 3 3.2 8.0 0.00 0.00 0.00 65 1014.5
20260508123554 11 284 1.6 6.4 0.00 0.00 0.00 67 1014.5
20260508123020 10 302 0.0 3.2 0.00 0.00 0.00 75 1014.5
20260508122555 10 339 0.0 4.8 0.00 0.00 0.00 78 1014.5
20260508122029 9 335 0.0 4.8 0.00 0.00 0.00 75 1014.5
20260508121556 9 38 0.0 4.8 0.00 0.00 0.00 77 1014.4
20260508121013 8 286 0.0 4.8 0.00 0.00 0.00 76 1014.4
20260508120543 8 335 0.0 4.8 0.00 0.00 0.00 78 1014.4
20260508120014 7 293 0.0 3.2 0.00 0.00 0.00 78 1014.3
20260508115546 7 294 0.0 3.2 0.00 0.00 0.00 81 1014.2
20260508115013 6 294 0.0 3.2 0.00 0.00 0.00 82 1014.3
20260508114527 6 317 0.0 0.0 0.00 0.00 0.00 86 1014.1
20260508114100 5 317 0.0 0.0 0.00 0.00 0.00 86 1014.2
20260508114003 5 317 0.0 0.0 0.00 0.00 0.00 86 1014.2
20260508113538 5 317 0.0 0.0 0.00 0.00 0.00 87 1014.2
20260508113009 5 317 0.0 0.0 0.00 0.00 0.00 87 1014.1
20260508112525 5 317 0.0 0.0 0.00 0.00 0.00 86 1014.0
20260508112003 4 317 0.0 0.0 0.00 0.00 0.00 85 1013.9